Regional Weather Roundup
Issued by NWS

Home | Current Version | Previous Version | Text Only | Print | Product List | Glossary Off
Versions: 1 2 3 4 5 6 7 8 9 10 11 12 13 14 15 16 17 18 19 20 21 22 23 24 25 26 27 28 29 30 31 32 33 34 35 36 37 38 39 40 41 42 43 44 45 46 47 48 49 50

000
ASUS43 KLOT 212210
RWRIL

ILLINOIS REGIONAL WEATHER ROUNDUP
NATIONAL WEATHER SERVICE CHICAGO/ROMEOVILLE IL
500 PM CDT TUE OCT 21 2014

NOTE: "FAIR" INDICATES FEW OR NO CLOUDS BELOW 12,000 FEET WITH NO
SIGNIFICANT WEATHER AND/OR OBSTRUCTIONS TO VISIBILITY.

* THESE STATIONS ARE NOT UNDER NWS QUALITY CONTROL. THEY ALSO MAY NOT
  REPORT WEATHER SUCH AS PRECIPITATION OR FOG.

ILZ001-002-007-009-015-016-024-212300-
NORTHWEST ILLINOIS

CITY           SKY/WX    TMP DP  RH WIND       PRES   REMARKS
MOLINE         SUNNY     58  38  47 E6        30.17R
STERLING*      SUNNY     55  39  54 NE8       30.19S
SAVANNA*       SUNNY     56  37  49 NE7       30.19S
$$

ILZ003-004-008-010-011-017-018-212300-
NORTH CENTRAL ILLINOIS

CITY           SKY/WX    TMP DP  RH WIND       PRES   REMARKS
ROCKFORD       PTSUNNY   52  38  58 NE8       30.23R
FREEPORT*      SUNNY     51  37  60 NE7       30.22S
ROCHELLE*      PTSUNNY   52  38  58 E10       30.21R
DE KALB*       CLOUDY    48  38  68 NE10      30.21S
PERU*          SUNNY     56  38  51 NE9       30.19R
$$

ILZ005-006-012>014-019>023-212300-
NORTHEAST ILLINOIS

CITY           SKY/WX    TMP DP  RH WIND       PRES   REMARKS
CHICAGO-OHARE  CLOUDY    49  39  68 N15       30.20R
CHICAGO-MIDWAY CLOUDY    52  38  58 N12G22    30.19S
AURORA         CLOUDY    51  38  60 NE12      30.21R
LANSING*       CLOUDY    50  40  67 N9        30.19R
JOLIET*        CLOUDY    49  39  68 NE6       30.21R
WAUKEGAN       CLOUDY    47  38  71 N7        30.21R
DUPAGE AIRPORT CLOUDY    49  39  68 NE7       30.20R
KANKAKEE*      CLOUDY    51  42  71 N8        30.20R
WHEELING       CLOUDY    50  39  66 N10       30.21R
MORRIS*        CLOUDY    52  41  65 NE6       30.19R
ROMEOVILLE*    CLOUDY    49  39  68 NE6       30.21R
NORTHERLY ISL    N/A     50  39  66 MISG        N/A
$$

LMZ740>746-212300-
SOUTHERN LAKE MICHIGAN

STATION/POSITION SKY/WX   TEMP    WIND        PRES    VSBY  WAVE
                          AIR SEA DIR/SP/G                  HT/PER
                          (F)     (DEG/KT/KT) (MB)    (MI)  (FT/S)
SOUTHERN BUOY              49 54  350/ 16/ 19 1022.4R         5/ 7
WAUKEGAN HARBOR            49     360/ 11/ 16   N/A
HARRISON CRIB              50     360/ 18/ 22   N/A
BURNHAM HARBOR             50     340/ 10/ 15   N/A
CALUMET HARBOR             51     360/ 12/ 16 1021.1R
MICHIGAN CITY              50     360/ 17/ 20   N/A
$$

ILZ025>027-034>036-040-047-049-050-058-095>099-212300-
WEST-CENTRAL ILLINOIS

CITY           SKY/WX    TMP DP  RH WIND       PRES   REMARKS
QUINCY         SUNNY     62  42  47 NE9       30.13S
GALESBURG*     SUNNY     58  39  48 NE9       30.16S
MACOMB*        SUNNY     60  39  46 E8        30.17S
JACKSONVILLE*  SUNNY     62  41  46 NE10      30.14S
PITTSFIELD*    SUNNY     63  43  47 E7        30.14S HAZE
$$

ILZ028>032-037-038-041>044-048-051>054-059>061-212300-
CENTRAL ILLINOIS

CITY           SKY/WX    TMP DP  RH WIND       PRES   REMARKS
PONTIAC          N/A     54  39  58 NE7       30.19S
BLOOMINGTON    SUNNY     57  40  53 NE13      30.18R
DECATUR        SUNNY     59  39  47 NE13      30.15R
PEORIA         SUNNY     60  38  43 NE6       30.16S
LACON*         SUNNY     56  37  48 NE5       30.17R
LINCOLN*       SUNNY     60  39  47 NE9       30.15R
SPRINGFIELD    SUNNY     60  40  47 NE13      30.16R
TAYLORVILLE    SUNNY     59  39  47 NE8       30.14S
$$

ILZ033-039-045-046-055>057-062-063-212300-
EAST-CENTRAL ILLINOIS

CITY           SKY/WX    TMP DP  RH WIND       PRES   REMARKS
CHAMPAIGN      PTSUNNY   59  41  51 NE13G21   30.17R
DANVILLE*      CLOUDY    52  44  72 N13       30.14R
RANTOUL*       CLOUDY    55  42  63 NE10      30.18R
MATTOON        SUNNY     58  37  45 N13G20    30.14R
PARIS*         CLOUDY    56  43  62 N8        30.16R
$$

ILZ079-100>102-212300-
SOUTHWEST ILLINOIS

CITY           SKY/WX    TMP DP  RH WIND       PRES   REMARKS
ALTON          SUNNY     64  36  34 N9        30.12S
BELLEVILLE     SUNNY     66  44  45 N8        30.11R
CAHOKIA*       SUNNY     67  44  43 NE10      30.11S
SPARTA*        SUNNY     65  45  47 N9        30.11R
$$

ILZ064>066-069>071-074>076-080>082-084>086-088>090-092>094-212300-
SOUTH-CENTRAL ILLINOIS

CITY           SKY/WX    TMP DP  RH WIND       PRES   REMARKS
CARBONDALE     SUNNY     68  43  40 N8        30.09S
CAIRO*         SUNNY     72  45  37 N8        30.07R
EFFINGHAM*     MOSUNNY   61  35  38 N7        30.13S
MARION         SUNNY     66  45  45 N12       30.10S
MT. VERNON     SUNNY     63  43  48 N10       30.12R
CENTRALIA*     SUNNY     63  41  44 N8        30.11R
SALEM*         SUNNY     64  44  47 NE6       30.12R
METROPOLIS*    SUNNY     69  44  41 N6        30.07R
$$

ILZ067-068-072-073-078-083-087-091-212300-
SOUTHEAST ILLINOIS

CITY           SKY/WX    TMP DP  RH WIND       PRES   REMARKS
LAWRENCEVILLE  MOSUNNY   60  40  47 N14       30.13R
FLORA*         SUNNY     62  41  45 N9        30.12S
FAIRFIELD*     SUNNY     63  42  46 NE8       30.10S
HARRISBURG*    SUNNY     65  44  48 NE10      30.10S
ROBINSON*      MOSUNNY   62  40  45 NE12      30.14S
CARMI*         MOSUNNY   64  45  48 N9        30.10S
$$

ABBREVIATIONS USED IN REMARKS
   TC - TEMPERATURE IN CELSIUS
  WCI - WIND CHILL INDEX
   HX - HEAT INDEX
  VSB - VISIBILITY
$$




USA.gov is the U.S. government's official web portal to all federal, state and local government web resources and services.